TimeEDT,TemperatureF,Dew PointF,Humidity,Sea Level PressureIn,VisibilityMPH,Wind Direction,Wind SpeedMPH,Gust SpeedMPH,PrecipitationIn,Events,Conditions,WindDirDegrees,DateUTC
12:53 AM,48.0,46.9,96,30.10,10.0,Calm,Calm,-,0.01,,Overcast,0,2012-10-08 04:53:00
1:53 AM,48.0,46.0,93,30.10,10.0,NW,3.5,-,N/A,,Overcast,320,2012-10-08 05:53:00
2:53 AM,45.0,44.1,97,30.10,10.0,Calm,Calm,-,N/A,,Clear,0,2012-10-08 06:53:00
3:53 AM,44.1,43.0,96,30.11,9.0,Calm,Calm,-,N/A,,Clear,0,2012-10-08 07:53:00
4:53 AM,43.0,42.1,97,30.13,8.0,NNW,3.5,-,N/A,,Clear,330,2012-10-08 08:53:00
5:53 AM,41.0,41.0,100,30.15,7.0,Calm,Calm,-,N/A,,Clear,0,2012-10-08 09:53:00
6:53 AM,41.0,39.9,96,30.16,4.0,Calm,Calm,-,N/A,,Clear,0,2012-10-08 10:53:00
7:53 AM,45.0,43.0,93,30.19,10.0,North,4.6,-,N/A,,Clear,350,2012-10-08 11:53:00
8:53 AM,48.9,45.0,86,30.23,10.0,NNW,6.9,-,N/A,,Clear,340,2012-10-08 12:53:00
9:53 AM,53.1,44.1,71,30.24,10.0,North,8.1,-,N/A,,Clear,360,2012-10-08 13:53:00
10:53 AM,54.0,41.0,62,30.25,10.0,North,8.1,-,N/A,,Clear,350,2012-10-08 14:53:00
11:53 AM,54.0,41.0,62,30.25,10.0,North,5.8,-,N/A,,Clear,350,2012-10-08 15:53:00
12:53 PM,55.9,42.1,60,30.25,10.0,Variable,3.5,-,N/A,,Clear,0,2012-10-08 16:53:00
1:53 PM,55.0,41.0,59,30.27,10.0,SSW,5.8,-,N/A,,Partly Cloudy,210,2012-10-08 17:53:00
2:53 PM,54.0,41.0,62,30.26,10.0,SW,3.5,-,N/A,,Partly Cloudy,230,2012-10-08 18:53:00
3:53 PM,54.0,41.0,62,30.25,10.0,SSW,3.5,-,N/A,,Mostly Cloudy,210,2012-10-08 19:53:00
4:53 PM,54.0,42.1,64,30.28,10.0,Calm,Calm,-,N/A,,Scattered Clouds,0,2012-10-08 20:53:00
5:53 PM,53.1,45.0,74,30.29,10.0,Calm,Calm,-,N/A,,Overcast,0,2012-10-08 21:53:00
6:53 PM,51.1,46.9,86,30.30,10.0,Calm,Calm,-,N/A,,Overcast,0,2012-10-08 22:53:00
7:53 PM,51.1,48.0,89,30.30,10.0,Calm,Calm,-,N/A,,Overcast,0,2012-10-08 23:53:00
8:53 PM,50.0,46.9,89,30.30,10.0,Calm,Calm,-,N/A,,Mostly Cloudy,0,2012-10-09 00:53:00
9:53 PM,48.9,46.9,93,30.30,10.0,North,3.5,-,N/A,,Clear,360,2012-10-09 01:53:00
10:53 PM,48.9,46.0,90,30.28,10.0,NE,3.5,-,N/A,,Scattered Clouds,40,2012-10-09 02:53:00
11:53 PM,48.0,46.0,93,30.27,10.0,Calm,Calm,-,N/A,,Clear,0,2012-10-09 03:53:00